"Pseudo-MPEC" for C0R1XU2

Created 2019 Jun 18 21:07:20 UT using Find_Orb

Click here for an explanation of pseudo-MPECs

 
 Astrometry: 
     C0R1XU2  C2019 06 06.43439 22 05 38.33 -05 59 55.2    ~66B7       VNEOCPG96
     C0R1XU2  C2019 06 06.44019 22 05 39.15 -05 59 52.2    ~66B7       VNEOCPG96
     C0R1XU2  C2019 06 06.44598 22 05 40.02 -05 59 49.7    ~66B7 21.3 GVNEOCPG96
     C0R1XU2  C2019 06 06.45178 22 05 40.91 -05 59 46.6    ~66B7 21.3 GVNEOCPG96
     C0R1XU2  C2019 06 06.46100 22 05 42.30 -05 59 42.5    ~66Bq 21.7 GVNEOCPG96
     C0R1XU2  C2019 06 06.46362 22 05 42.67 -05 59 41.2    ~66Bq 21.2 GVNEOCPG96
     C0R1XU2  C2019 06 06.46623 22 05 43.05 -05 59 40.5    ~66Bq       VNEOCPG96
     C0R1XU2  C2019 06 06.46733 22 05 43.30 -05 59 40.2    ~66Bq       VNEOCPG96
     C0R1XU2 KC2019 06 07mYYAstrometry^)hxB^Oredacted;wJ8ScEQE(fbCD@/NGYf033iJ04
     C0R1XU2 KC2019 06 07rp2Jclick9JS6NlC7ku\sax+?%4@^T@Hh-8:#$Nr-VherePform/J04
     C0R1XU2 KC2019 06 07%)(@[x#ntH:d6explanationGVPKZIAbuN9Ye8H^3*\9^9-YUUstJ04
     C0R1XU2  C2019 06 07.39920 22 08 06.20 -05 52 35.1    ~67A7       VNEOCPI52
     C0R1XU2  C2019 06 07.40086 22 08 06.55 -05 52 33.8    ~67A7 21.4 GVNEOCPI52
     C0R1XU2  C2019 06 07.40253 22 08 06.72 -05 52 33.5    ~67A7       VNEOCPI52
     C0R1XU2  C2019 06 07.40419 22 08 06.99 -05 52 33.1    ~67A7       VNEOCPI52
     C0R1XU2  C2019 06 08.39950 22 10 40.47 -05 45 02.8    ~691b 21.2 GVNEOCPI52
     C0R1XU2  C2019 06 08.40470 22 10 41.26 -05 45 00.0    ~691b 21.4 GVNEOCPI52
     C0R1XU2  C2019 06 08.41137 22 10 42.10 -05 44 56.2    ~691b       VNEOCPI52
     C0R1XU2  C2019 06 09.42019 22 13 18.76 -05 37 23.7    ~69Aq 20.7 GVNEOCPG96
     C0R1XU2  C2019 06 09.42615 22 13 19.66 -05 37 21.1    ~69Aq 21.4 GVNEOCPG96
     C0R1XU2  C2019 06 09.42760 22 13 19.89 -05 37 20.6    ~69Aq 21.2 GVNEOCPG96
     C0R1XU2  C2019 06 11.39924 22 18 28.81 -05 22 43.8    ~6BA7 20.6 GVNEOCPI52
     C0R1XU2  C2019 06 11.40257 22 18 29.30 -05 22 42.1    ~6BA7 20.9 GVNEOCPI52
     C0R1XU2  C2019 06 11.40590 22 18 29.83 -05 22 40.9    ~6BA7 20.9 GVNEOCPI52
     C0R1XU2  C2019 06 12.39382 22 21 06.24 -05 15 26.7    ~6CA7 22.3 GVNEOCPI52
     C0R1XU2  C2019 06 12.39840 22 21 06.80 -05 15 25.9    ~6CA7       VNEOCPI52
     C0R1XU2  C2019 06 12.40299 22 21 07.49 -05 15 23.1    ~6CA7 21.0 GVNEOCPI52
     C0R1XU2  C2019 06 13.41938 22 23 49.36 -05 08 01.1    ~6DAb 20.3 GVNEOCPI52
     C0R1XU2  C2019 06 13.42188 22 23 49.72 -05 07 59.4    ~6DAb 20.9 GVNEOCPI52
     C0R1XU2  C2019 06 13.42438 22 23 50.12 -05 07 58.8    ~6DAb 20.8 GVNEOCPI52
     C0R1XU2  C2019 06 13.42688 22 23 50.52 -05 07 57.5    ~6DAb 20.8 GVNEOCPI52
     C0R1XU2  C2019 06 14.42932 22 26 31.31 -05 00 45.7    ~6EAq 19.7 GVNEOCPI52
     C0R1XU2  C2019 06 14.43269 22 26 31.84 -05 00 43.7    ~6EAq 20.7 GVNEOCPI52
     C0R1XU2  C2019 06 14.43605 22 26 32.46 -05 00 42.8    ~6EAq       VNEOCPI52
     C0R1XU2  C2019 06 15.42177 22 29 11.54 -04 53 42.9    ~6FAq       VNEOCPI52
     C0R1XU2  C2019 06 15.42344 22 29 11.83 -04 53 42.8    ~6FAq 21.2 GVNEOCPI52
     C0R1XU2  C2019 06 15.42511 22 29 12.14 -04 53 44.1    ~6FAq 20.1 GVNEOCPI52

Station data:
(G96) Mt. Lemmon Survey  (N32.442754 W110.788720)  US/Arizona.  Observers T.
   A. Pruyne, B. M. Africano, E. J. Christensen, G. A. Farneth, D. C. Fuls,
   A. R. Gibbs, A. D. Grauer, H. Groeller, J. A. Johnson, R. A. Kowalski, S.
   M. Larson, G. J. Leonard, R. L. Seaman, F. C. Shelly. 1.5-m reflector +
   10K CCD.
(I52) Steward Observatory, Mt. Lemmon Station  (N32.442547 W110.788920)
   US/Arizona.  Observers T. A. Pruyne, B. M. Africano, E. J. Christensen, G.
   A. Farneth, D. C. Fuls, A. R. Gibbs, A. D. Grauer, H. Groeller, J. A.
   Johnson, R. A. Kowalski, S. M. Larson, G. J. Leonard, R. L. Seaman, F. C.
   Shelly. 1.0-m reflector + CCD.
(J04) ESA Optical Ground Station, Tenerife  (N28.300924 W16.511830)  Canary
   Islands (Spain).  Observer D. Abreu. Measurers M. Micheli, D. Koschny, E.
   Schwab, M. Busch, A. Knöfel. 1.0-m f/4.4 reflector + CCD.

Orbital elements:  C0R1XU2
   Perihelion 2019 Sep 12.271924 +/- 1.14 TT =  6:31:34 (JD 2458738.771924)
Epoch 2019 Jun 15.0 TT = JDT 2458649.5   Earth MOID: 0.2579   Ma: 0.0371
M 332.09181196 +/- 1.4              (J2000 ecliptic)          AutoNEOCP
n   0.31261999 +/- 0.0125           Peri.  233.34073 +/- 1.1
a   2.15009782 +/- 0.0571           Node   130.25087 +/- 0.20
e   0.4320626 +/- 0.0116            Incl.   10.18952 +/- 0.040
P   3.15                   H 19.0   G  0.15   U  9.8  
q 1.22112093 +/- 0.00801    Q 3.07907471 +/- 0.113
From 37 observations 2019 June 6-15; mean residual 0".64
Residuals in arcseconds: 
190606 G96  .57+  .34-    190607 I52  .55-  .24+    190612 I52  .68-  .03+    
190606 G96  .17-  .03+    190607 I52  .27-  .11-    190613 I52  .10+  .01+    
190606 G96  .14-  .10-    190608 I52  .00   .43-    190613 I52  .38-  .64+    
190606 G96  .17+  .36+    190608 I52  .02-  .05+    190613 I52  .26-  .16+    
190606 G96  .30+  .26+    190608 I52  2.6-  .86+    190613 I52  .14-  .39+    
190606 G96  .04-  .37+    190609 G96  .01+  .17-    190614 I52  .29+  .53+    
190606 G96  .20-  .11-    190609 G96  .15-  .22-    190614 I52  .27+  1.1+    
190606 G96  1.1+  .32-    190609 G96  .02-  .37-    190614 I52  1.6+  .57+    
190607 J04  .81+  .36-    190611 I52  .39+  .04-    190615 I52  .94-  .43+    
190607 J04  .22+  .39-    190611 I52  .00   .20+    190615 I52  .57-  .18-    
190607 J04  .11-  .07-    190611 I52  .21+  .06-    190615 I52  .09+  2.2-    
190607 I52  .79-  .14+    190612 I52  2.0+  .41+    
190607 I52  .68+  .69+    190612 I52  .29-  .78-    

Ephemerides (geocentric):
Date (UTC) HH   RA              Dec         delta   r     elong  mag " sig PA
---- -- -- --  -------------   -----------  ------ ------ -----  --- ---- ---
2019 06 18 21  22 38 38.088   -04 29 43.97  .81307 1.4801 107.5 21.1 1.45 123
2019 06 18 22  22 38 45.016   -04 29 27.07  .81265 1.4799 107.5 21.1 1.47 123
2019 06 18 23  22 38 51.947   -04 29 10.19  .81222 1.4797 107.5 21.1 1.49 123
2019 06 19 00  22 38 58.879   -04 28 53.31  .81180 1.4795 107.6 21.1 1.51 123
2019 06 19 01  22 39 05.813   -04 28 36.44  .81137 1.4793 107.6 21.1 1.54 123
2019 06 19 02  22 39 12.750   -04 28 19.59  .81095 1.4791 107.6 21.1 1.56 123
2019 06 19 03  22 39 19.689   -04 28 02.74  .81053 1.4789 107.6 21.0 1.58 123
2019 06 19 04  22 39 26.630   -04 27 45.90  .81010 1.4786 107.6 21.0 1.60 123
2019 06 19 05  22 39 33.574   -04 27 29.08  .80968 1.4784 107.6 21.0 1.62 123
2019 06 19 06  22 39 40.519   -04 27 12.26  .80926 1.4782 107.6 21.0 1.65 123
2019 06 19 07  22 39 47.467   -04 26 55.45  .80884 1.4780 107.6 21.0 1.67 123
2019 06 19 08  22 39 54.416   -04 26 38.66  .80841 1.4778 107.6 21.0 1.69 122
2019 06 19 09  22 40 01.368   -04 26 21.87  .80799 1.4776 107.7 21.0 1.72 122
2019 06 19 10  22 40 08.323   -04 26 05.10  .80757 1.4774 107.7 21.0 1.74 122
2019 06 19 11  22 40 15.279   -04 25 48.33  .80715 1.4772 107.7 21.0 1.77 122
2019 06 19 12  22 40 22.238   -04 25 31.58  .80672 1.4769 107.7 21.0 1.79 122
2019 06 19 13  22 40 29.199   -04 25 14.83  .80630 1.4767 107.7 21.0 1.81 122
2019 06 19 14  22 40 36.162   -04 24 58.10  .80588 1.4765 107.7 21.0 1.84 122
2019 06 19 15  22 40 43.127   -04 24 41.37  .80546 1.4763 107.7 21.0 1.86 122
2019 06 19 16  22 40 50.094   -04 24 24.66  .80504 1.4761 107.7 21.0 1.89 122
2019 06 19 17  22 40 57.064   -04 24 07.96  .80462 1.4759 107.7 21.0 1.91 122
2019 06 19 18  22 41 04.036   -04 23 51.27  .80420 1.4757 107.8 21.0 1.94 122
2019 06 19 19  22 41 11.010   -04 23 34.59  .80378 1.4755 107.8 21.0 1.96 122
2019 06 19 20  22 41 17.986   -04 23 17.92  .80336 1.4752 107.8 21.0 1.99 122
2019 06 19 21  22 41 24.964   -04 23 01.25  .80293 1.4750 107.8 21.0 2.01 122
2019 06 19 22  22 41 31.945   -04 22 44.60  .80251 1.4748 107.8 21.0 2.04 122
2019 06 19 23  22 41 38.928   -04 22 27.97  .80209 1.4746 107.8 21.0 2.07 122
2019 06 20 00  22 41 45.913   -04 22 11.34  .80168 1.4744 107.8 21.0 2.09 122
2019 06 20 01  22 41 52.900   -04 21 54.72  .80126 1.4742 107.8 21.0 2.12 122
2019 06 20 02  22 41 59.890   -04 21 38.11  .80084 1.4740 107.8 21.0 2.15 122
2019 06 20 03  22 42 06.881   -04 21 21.52  .80042 1.4738 107.9 21.0 2.17 122
2019 06 20 04  22 42 13.875   -04 21 04.93  .80000 1.4736 107.9 21.0 2.20 121
2019 06 20 05  22 42 20.872   -04 20 48.35  .79958 1.4733 107.9 21.0 2.23 121
2019 06 20 06  22 42 27.870   -04 20 31.79  .79916 1.4731 107.9 21.0 2.26 121
2019 06 20 07  22 42 34.871   -04 20 15.24  .79874 1.4729 107.9 21.0 2.28 121
2019 06 20 08  22 42 41.873   -04 19 58.69  .79832 1.4727 107.9 21.0 2.31 121
2019 06 20 09  22 42 48.879   -04 19 42.16  .79791 1.4725 107.9 21.0 2.34 121
2019 06 20 10  22 42 55.886   -04 19 25.64  .79749 1.4723 107.9 21.0 2.37 121
2019 06 20 11  22 43 02.895   -04 19 09.13  .79707 1.4721 107.9 21.0 2.40 121
2019 06 20 12  22 43 09.907   -04 18 52.63  .79665 1.4719 108.0 21.0 2.43 121
2019 06 20 13  22 43 16.921   -04 18 36.14  .79624 1.4717 108.0 21.0 2.46 121
2019 06 20 14  22 43 23.938   -04 18 19.67  .79582 1.4714 108.0 21.0 2.49 121
2019 06 20 15  22 43 30.956   -04 18 03.20  .79540 1.4712 108.0 21.0 2.52 121
2019 06 20 16  22 43 37.977   -04 17 46.75  .79498 1.4710 108.0 21.0 2.55 121
2019 06 20 17  22 43 45.000   -04 17 30.30  .79457 1.4708 108.0 21.0 2.58 121
2019 06 20 18  22 43 52.025   -04 17 13.87  .79415 1.4706 108.0 21.0 2.61 121
2019 06 20 19  22 43 59.053   -04 16 57.45  .79374 1.4704 108.0 21.0 2.64 121
2019 06 20 20  22 44 06.082   -04 16 41.04  .79332 1.4702 108.0 21.0 2.67 121